Weather Roundup
Issued by NWS Springfield, MO

Home | Current Version | Previous Version | Text Only | Print | Product List | Glossary On
Versions: 1 2 3 4 5 6 7 8 9 10 11 12 13 14 15 16 17 18 19 20 21 22 23 24 25 26 27 28 29 30 31 32 33 34 35 36 37 38 39 40 41 42 43 44 45 46 47 48 49 50
000
NZUS99 KSGF 220807
HRRSGF

HOURLY WEATHER
NATIONAL WEATHER SERVICE SPRINGFIELD MO
300 AM CDT FRI AUG 22 2014

......SGF CWA......

CITY           SKY/WX    TMP DP  RH WIND       PRES   REMARKS
SPRINGFIELD    CLEAR     76  70  82 S10       30.01F
JOPLIN         CLEAR     79  71  76 S13       29.98F
WEST PLAINS    CLEAR     73  68  84 CALM      30.06S
ROLLA          CLEAR     74  67  78 SW9       29.99F
OSAGE BEACH    CLEAR     77  68  73 S7        29.98F
BRANSON        CLEAR     73  70  88 SE5       30.05S

......SURROUNDING SGF CWA......

CITY           SKY/WX    TMP DP  RH WIND       PRES   REMARKS
CHANUTE        CLEAR     80  70  71 S12       29.94F
PARSONS        CLEAR     79  70  74 S6        29.95F
COFFEYVILLE    CLEAR     80  71  74 S10       29.94F
EMPORIA        CLEAR     79  70  74 S16       29.90F
GROVE OK       CLEAR     79  72  78 SE3       29.99F
ROGERS AR      CLEAR     75  70  84 SE6       30.04F
SILOAM SPRINGS CLEAR     75  66  73 S6        30.04S
HARRISON AR    CLEAR     75  72  90 E8        30.05S
NEAR YELLVILLE CLEAR     73  66  78 CALM      30.03S

......KANSAS AND MISSOURI......

CITY           SKY/WX    TMP DP  RH WIND       PRES   REMARKS
KANSAS CTY INT MOCLDY    81  71  71 SW12      29.92R
DOWNTOWN KC    PTCLDY    83  71  67 S13G23    29.90R
COLUMBIA       CLEAR     78  70  76 S10       29.96F
SEDALIA        CLEAR     80  70  71 SW13      29.96F
ST JOSEPH      MOCLDY    80  73  79 S7        29.90R
ST LOUIS       CLEAR     84  68  58 SW14      29.95F
SPIRIT OF STL  CLEAR     80  68  66 SW8       29.94F
KIRKSVILLE     CLEAR     81  71  71 SW12      29.92S
WICHITA        PTCLDY    81  69  67 S13       29.91F
TOPEKA         CLOUDY    84  73  69 S7        29.89F HX  90
OLATHE         PTCLDY    78  71  79 S9        29.92S

......TENNESSEE......

CITY           SKY/WX    TMP DP  RH WIND       PRES   REMARKS
MEMPHIS        CLEAR     79  73  82 SW7       30.05S
NASHVILLE      PTCLDY    76  73  91 CALM      30.06F

......ARKANSAS.......

CITY           SKY/WX    TMP DP  RH WIND       PRES   REMARKS
FAYETTEVILLE   CLEAR     76  72  87 S8        30.03F
FT SMITH       CLEAR     78  73  84 E6        30.00R
LITTLE ROCK    CLEAR     78  72  81 SW6       30.03R

......OKLAHOMA.......

CITY           SKY/WX    TMP DP  RH WIND       PRES   REMARKS
TULSA          CLEAR     82  70  66 S13       29.94F
PONCA CITY     CLEAR     83  68  60 S9G22     29.92F
MCALESTER      CLEAR     82  70  66 S8        29.99S
OKLAHOMA CITY  PTCLDY    78  65  63 S8        29.96R

......IOWA............

CITY           SKY/WX    TMP DP  RH WIND       PRES   REMARKS
DES MOINES     CLOUDY    80  73  79 W22G31    29.89R THUNDER
QUAD CITIES    MOCLDY    77  74  90 CALM      29.87R

......ILLINOIS........

CITY           SKY/WX    TMP DP  RH WIND       PRES   REMARKS
QUINCY         CLEAR     80  72  76 SW10      29.90S
CHICAGO        TSTM      74  70  87 W3G18     29.91R FOG



USA.gov is the U.S. government's official web portal to all federal, state and local government web resources and services.